Find Starlink 34402

NORAD ID: 64446 Int'l Des: 2025-130 Owner: SPXS Country: US Constellation: starlink operational
LEOCIRCULAR

当前视图

正在加载3D地球...

About Starlink 34402

Starlink 34402 (NORAD 64446) is a starlink constellation satellite (v2 mini) launched Jun 18, 2025 by SPXS of US. It operates in LEO, CIRCULAR orbit with a mass of 575.00 kg.

关于 Starlink 34402

正在加载描述...

即将过境

Passes for default location (London). Set your location on the main map for personalized predictions.

高度历史

Loading altitude history...

两行轨道根数

1 64446U 25130J 26162.32523638 .00008393 00000-0 29500-3 0 9996
2 64446 53.1612 13.2884 0001180 73.5964 286.5166 15.30220075 55047
Epoch: Jun 11, 2026 • Age: 13 hours

当前状态

高度 476.1 km
速度 7.63 km/s
星下点 -1.61°S, 164.42°E
发射日期 Jun 18, 2025
运行时间 0.9 years
类型 internet

技术详情

分类 Payload
质量 575.00 kg
干质量 530.00 kg
总质量 575.00 kg
长度 0.30 m
直径 4.10 m
跨度 29.00 m
形状 Box + pan
制造商 SPXS
平台类型 Starlink V2MO
阶段状态 In Orbit
所有者/国家 SPXS/US

Most Searched